When you browse on this site, cookies collect data to enhance your experience and personalize the content and advertising you see.
Visit our Privacy Policy to learn more. By continuing to use the site, you agree to this use of cookies and data.
  • In France
  • List of Countries
  • For 7 days
  • Water Temperature
  • Satellite Maps
  • Weather Map
  • Weather Widgets
  • user-avatar
    Login

    Hourly Weather Mikulino

    Today, 24 January, Thursday

    Time Temperature Precipitation Wind Pressure Humidity
    00:00 -17°C° 0 mm 2 mps 741 mmHg 97%
    01:00 -18°C° 0 mm 2 mps 741 mmHg 98%
    02:00 -19°C° 0 mm 2 mps 741 mmHg 98%
    03:00 -19°C° 0 mm 2 mps 741 mmHg 98%
    04:00 -17°C° 0 mm 1 mps 741 mmHg 98%
    05:00 -18°C° 0 mm 1 mps 741 mmHg 98%
    06:00 -18°C° 0 mm 1 mps 741 mmHg 97%
    07:00 -18°C° 0 mm 1 mps 741 mmHg 97%
    08:00 -18°C° 0 mm 1 mps 741 mmHg 97%
    09:00 -17°C° 0 mm 1 mps 742 mmHg 95%
    10:00 -15°C° 0 mm 1 mps 742 mmHg 93%
    11:00 -14°C° 0 mm 1 mps 742 mmHg 91%
    12:00 -13°C° 0 mm 1 mps 742 mmHg 91%
    13:00 -12°C° 0 mm 1 mps 742 mmHg 91%
    14:00 -12°C° 0 mm 1 mps 742 mmHg 91%
    15:00 -13°C° 0 mm 1 mps 743 mmHg 92%
    16:00 -14°C° 0 mm 1 mps 743 mmHg 92%
    17:00 -15°C° 0 mm 1 mps 743 mmHg 93%
    18:00 -15°C° 0 mm 1 mps 744 mmHg 93%
    19:00 -15°C° 0 mm 1 mps 744 mmHg 94%
    20:00 -15°C° 0 mm 1 mps 744 mmHg 95%
    21:00 -14°C° 0 mm 1 mps 745 mmHg 95%
    22:00 -13°C° 0 mm 1 mps 745 mmHg 96%
    23:00 -12°C° 0 mm 1 mps 746 mmHg 96%

    Tomorrow, 25 January, Friday

    Time Temperature Precipitation Wind Pressure Humidity
    00:00 -15°C° 0 mm 2 mps 746 mmHg 96%
    01:00 -15°C° 0 mm 2 mps 746 mmHg 96%
    02:00 -16°C° 0 mm 2 mps 747 mmHg 97%
    03:00 -17°C° 0 mm 2 mps 747 mmHg 97%
    04:00 -18°C° 0 mm 2 mps 747 mmHg 97%
    05:00 -19°C° 0 mm 2 mps 747 mmHg 98%
    06:00 -19°C° 0 mm 2 mps 747 mmHg 97%
    07:00 -20°C° 0 mm 2 mps 747 mmHg 97%
    08:00 -20°C° 0 mm 2 mps 748 mmHg 97%
    09:00 -21°C° 0 mm 3 mps 748 mmHg 95%
    10:00 -19°C° 0 mm 3 mps 748 mmHg 93%
    11:00 -17°C° 0 mm 3 mps 749 mmHg 91%
    12:00 -17°C° 0 mm 3 mps 748 mmHg 90%
    13:00 -16°C° 0 mm 3 mps 748 mmHg 90%
    14:00 -15°C° 0 mm 3 mps 748 mmHg 89%
    15:00 -16°C° 0 mm 3 mps 748 mmHg 89%
    16:00 -17°C° 0 mm 3 mps 748 mmHg 89%
    17:00 -18°C° 0 mm 3 mps 748 mmHg 89%
    18:00 -18°C° 0 mm 3 mps 747 mmHg 88%
    19:00 -19°C° 0 mm 4 mps 747 mmHg 87%
    20:00 -19°C° 0 mm 4 mps 747 mmHg 86%
    21:00 -19°C° 0 mm 4 mps 747 mmHg 85%
    22:00 -19°C° 0 mm 4 mps 746 mmHg 85%
    23:00 -19°C° 0 mm 5 mps 746 mmHg 84%

    Day after tomorrow, 26 January, Saturday

    Time Temperature Precipitation Wind Pressure Humidity
    00:00 -18°C° 0 mm 4 mps 745 mmHg 84%
    01:00 -18°C° 0 mm 4 mps 745 mmHg 84%
    02:00 -18°C° 0 mm 4 mps 744 mmHg 84%
    03:00 -18°C° 0.3 mm 4 mps 744 mmHg 88%
    04:00 -19°C° 0.3 mm 5 mps 743 mmHg 92%
    05:00 -19°C° 0.3 mm 5 mps 742 mmHg 95%
    06:00 -19°C° 0.6 mm 5 mps 742 mmHg 95%
    07:00 -18°C° 0.6 mm 4 mps 741 mmHg 95%
    08:00 -18°C° 0.6 mm 4 mps 740 mmHg 95%
    09:00 -17°C° 0.4 mm 4 mps 740 mmHg 95%
    10:00 -17°C° 0.4 mm 4 mps 739 mmHg 95%
    11:00 -15°C° 0.4 mm 3 mps 739 mmHg 95%
    12:00 -15°C° 0.4 mm 3 mps 738 mmHg 95%
    13:00 -14°C° 0.4 mm 3 mps 738 mmHg 95%
    14:00 -13°C° 0.4 mm 3 mps 737 mmHg 95%
    15:00 -13°C° 0.3 mm 3 mps 737 mmHg 95%
    16:00 -12°C° 0.3 mm 2 mps 736 mmHg 96%
    17:00 -10°C° 0.3 mm 2 mps 736 mmHg 97%
    18:00 -10°C° 0.2 mm 2 mps 735 mmHg 97%
    19:00 -9°C° 0.2 mm 1 mps 735 mmHg 97%
    20:00 -9°C° 0.2 mm 1 mps 735 mmHg 97%
    21:00 -9°C° 0.1 mm 1 mps 734 mmHg 97%
    22:00 -9°C° 0.1 mm 1 mps 734 mmHg 97%
    23:00 -9°C° 0.1 mm 1 mps 734 mmHg 97%

    27 January, Sunday

    Time Temperature Precipitation Wind Pressure Humidity
    00:00 -10°C° 0 mm 1 mps 734 mmHg 97%
    01:00 -12°C° 0 mm 2 mps 733 mmHg 97%
    02:00 -13°C° 0 mm 2 mps 733 mmHg 97%
    03:00 -14°C° 0 mm 2 mps 733 mmHg 97%
    04:00 -15°C° 0 mm 2 mps 733 mmHg 98%
    05:00 -16°C° 0 mm 2 mps 733 mmHg 98%
    06:00 -16°C° 0 mm 2 mps 733 mmHg 98%
    07:00 -17°C° 0 mm 2 mps 733 mmHg 98%
    08:00 -17°C° 0 mm 2 mps 733 mmHg 98%
    09:00 -17°C° 0 mm 2 mps 733 mmHg 97%
    10:00 -16°C° 0 mm 2 mps 733 mmHg 96%
    11:00 -16°C° 0 mm 3 mps 734 mmHg 95%
    12:00 -16°C° 0 mm 3 mps 734 mmHg 94%
    13:00 -16°C° 0 mm 3 mps 734 mmHg 93%
    14:00 -16°C° 0 mm 3 mps 734 mmHg 92%
    15:00 -17°C° 0 mm 3 mps 734 mmHg 94%
    16:00 -18°C° 0 mm 3 mps 734 mmHg 95%
    17:00 -18°C° 0 mm 2 mps 734 mmHg 96%
    18:00 -19°C° 0 mm 2 mps 735 mmHg 97%
    19:00 -20°C° 0 mm 2 mps 735 mmHg 97%
    20:00 -20°C° 0 mm 2 mps 735 mmHg 98%
    21:00 -21°C° 0 mm 2 mps 736 mmHg 98%
    22:00 -21°C° 0 mm 2 mps 736 mmHg 99%
    23:00 -23°C° 0 mm 2 mps 736 mmHg 99%

    28 January, Monday

    Time Temperature Precipitation Wind Pressure Humidity
    00:00 -23°C° 0 mm 2 mps 737 mmHg 99%
    01:00 -23°C° 0 mm 2 mps 737 mmHg 99%
    02:00 -23°C° 0 mm 2 mps 738 mmHg 99%
    03:00 -24°C° 0 mm 2 mps 738 mmHg 99%
    04:00 -24°C° 0 mm 2 mps 738 mmHg 99%
    05:00 -24°C° 0 mm 2 mps 738 mmHg 99%
    06:00 -24°C° 0 mm 2 mps 739 mmHg 99%
    07:00 -21°C° 0 mm 1 mps 739 mmHg 99%
    08:00 -22°C° 0 mm 1 mps 739 mmHg 99%
    09:00 -20°C° 0 mm 1 mps 740 mmHg 97%
    10:00 -19°C° 0 mm 1 mps 740 mmHg 96%
    11:00 -17°C° 0 mm 1 mps 740 mmHg 94%
    12:00 -16°C° 0 mm 1 mps 741 mmHg 93%
    13:00 -15°C° 0 mm 0 mps 741 mmHg 91%
    14:00 -14°C° 0 mm 0 mps 741 mmHg 90%
    15:00 -16°C° 0 mm 0 mps 741 mmHg 92%
    16:00 -17°C° 0 mm 1 mps 741 mmHg 94%
    17:00 -18°C° 0 mm 1 mps 741 mmHg 95%
    18:00 -18°C° 0 mm 1 mps 742 mmHg 95%
    19:00 -20°C° 0 mm 2 mps 742 mmHg 95%
    20:00 -20°C° 0 mm 2 mps 742 mmHg 95%
    21:00 -20°C° 0 mm 2 mps 742 mmHg 95%
    22:00 -20°C° 0 mm 2 mps 742 mmHg 95%
    23:00 -20°C° 0 mm 2 mps 742 mmHg 95%

    29 January, Tuesday

    Time Temperature Precipitation Wind Pressure Humidity
    00:00 -20°C° 0 mm 2 mps 742 mmHg 95%
    01:00 -22°C° 0 mm 3 mps 742 mmHg 95%
    02:00 -21°C° 0 mm 3 mps 742 mmHg 94%
    03:00 -21°C° 0 mm 3 mps 742 mmHg 94%
    04:00 -21°C° 0 mm 3 mps 742 mmHg 94%
    05:00 -21°C° 0 mm 3 mps 742 mmHg 93%
    06:00 -19°C° 0 mm 3 mps 742 mmHg 92%
    07:00 -19°C° 0 mm 3 mps 742 mmHg 92%
    08:00 -19°C° 0 mm 4 mps 742 mmHg 91%
    09:00 -18°C° 0 mm 4 mps 742 mmHg 90%
    10:00 -17°C° 0 mm 4 mps 742 mmHg 90%
    11:00 -17°C° 0 mm 5 mps 742 mmHg 90%
    12:00 -15°C° 0.1 mm 5 mps 742 mmHg 91%
    13:00 -15°C° 0.1 mm 5 mps 742 mmHg 92%
    14:00 -14°C° 0.1 mm 5 mps 741 mmHg 93%
    15:00 -13°C° 0 mm 5 mps 741 mmHg 92%
    16:00 -13°C° 0 mm 5 mps 741 mmHg 92%
    17:00 -13°C° 0 mm 5 mps 741 mmHg 92%
    18:00 -12°C° 0.1 mm 5 mps 741 mmHg 92%
    19:00 -12°C° 0.1 mm 5 mps 741 mmHg 92%
    20:00 -12°C° 0.1 mm 5 mps 740 mmHg 93%
    21:00 -11°C° 0 mm 5 mps 740 mmHg 93%
    22:00 -11°C° 0 mm 5 mps 740 mmHg 93%
    23:00 -10°C° 0 mm 5 mps 740 mmHg 93%
    Show more